Wind_Speed
12 12 12 13 12 11 11 11 11 11 11 12 11 11 11 12 13 7 7 7 4 5 6 4 5 7 5 3 4 3 3 4 2 4 3 10 19 4 10 22 11 7 15 18 30
14 14 13 13 13 12 12 12 11 11 10 11 10 10 11 12 11 13 14 8 7 10 6 9 5 5 2 6 4 3 1 3 4 6 6 11 12 15 13 16 12 15 20 28 35
16 16 16 15 15 14 13 12 11 11 10 10 9 8 9 9 3 7 5 17 12 7 7 6 8 7 5 4 5 3 2 3 7 3 10 9 13 12 17 14 18 25 21 24 27
18 18 18 18 17 15 14 13 12 11 9 8 8 7 7 2 2 2 1 17 18 11 8 0 2 3 6 7 6 7 10 8 6 3 3 11 11 15 18 11 18 20 27 25 18
17 18 19 19 18 16 15 14 13 12 10 8 5 5 3 1 8 5 3 15 18 13 9 4 3 4 4 3 7 7 14 13 9 10 8 16 9 7 10 17 17 26 23 20 18
16 17 19 20 20 19 17 16 14 11 10 9 5 3 1 2 4 9 8 14 14 18 9 9 7 1 6 4 3 8 13 13 9 10 8 7 7 9 16 15 17 21 22 20 16
16 17 19 20 21 21 19 17 14 8 8 7 3 3 2 11 2 8 9 10 16 18 6 20 9 2 10 3 7 12 7 5 4 2 5 9 11 14 20 19 13 19 14 15 21
16 18 19 21 23 23 21 17 12 6 6 4 1 2 6 6 7 10 12 4 13 12 19 12 11 5 5 6 4 5 5 4 4 4 4 3 7 19 20 18 10 12 10 15 20
16 18 20 22 24 24 22 17 11 6 5 1 2 2 9 10 5 12 19 8 14 14 13 13 3 6 1 5 4 5 4 4 2 7 5 6 4 9 16 16 12 10 8 15 13
17 19 21 23 25 26 23 17 8 3 1 2 4 4 6 4 7 13 16 12 6 3 3 3 2 1 3 4 3 5 5 2 4 3 4 6 2 4 14 18 16 11 8 13 15
18 20 21 23 25 26 23 5 4 2 3 8 5 4 8 3 8 6 13 9 6 3 4 3 3 5 4 3 1 9 7 5 4 1 4 2 11 6 10 4 8 9 8 13 16
20 22 24 25 24 21 16 1 7 1 7 11 11 7 17 12 1 4 7 4 6 6 4 4 6 9 5 8 14 8 12 3 3 4 2 3 11 4 6 3 3 5 7 15 9
24 26 26 21 15 8 7 12 15 17 2 8 5 5 6 4 3 6 7 5 2 2 4 7 7 9 10 13 12 10 7 5 3 5 5 3 3 4 2 4 3 5 3 10 16
28 27 21 13 3 7 8 12 22 9 4 6 2 4 4 4 3 11 12 5 2 10 7 6 14 10 12 11 14 6 9 13 7 2 3 4 3 5 6 10 6 7 4 6 14
27 24 16 8 8 3 11 28 28 4 4 3 3 4 5 5 2 3 15 4 6 6 1 10 5 6 7 16 11 6 13 12 6 4 2 5 4 5 4 11 14 8 7 6 9
26 19 11 5 8 9 20 26 8 5 2 5 1 2 0 2 4 7 5 3 3 5 6 10 6 5 7 17 9 18 13 11 5 3 2 6 2 7 5 12 18 8 8 8 8
24 14 8 7 4 8 20 5 5 4 4 4 5 2 2 3 3 5 5 3 3 4 5 8 5 4 16 17 8 15 6 3 0 1 5 5 4 8 7 9 15 16 13 10 8
18 10 9 14 14 17 15 5 5 4 4 7 3 5 2 2 4 3 4 1 4 3 2 2 7 12 4 12 14 14 6 6 4 2 2 6 5 6 11 7 17 22 18 12 10
14 7 7 9 10 6 5 4 3 2 5 7 5 7 6 6 2 3 2 1 4 5 5 1 5 3 9 7 14 6 5 7 6 2 3 4 5 9 8 2 9 15 15 15 15
12 4 7 8 10 7 4 4 3 2 4 6 4 4 5 6 7 4 2 2 4 3 4 3 2 2 7 8 10 12 7 3 2 5 4 4 4 7 4 10 10 8 8 13 13
7 4 5 7 10 4 2 5 1 2 1 2 3 1 1 3 1 1 5 3 4 6 5 1 3 8 3 1 9 1 1 3 4 4 5 3 6 7 9 8 15 16 14 15 14
6 3 2 2 3 1 2 5 3 5 6 6 7 3 2 6 5 2 2 1 6 3 3 2 4 2 6 7 4 3 2 4 5 5 2 4 5 6 7 3 5 6 13 15 18
2 3 7 7 2 2 6 3 3 3 4 5 5 4 6 5 3 4 5 7 3 3 2 5 3 4 9 7 9 6 6 4 2 2 3 5 5 5 8 8 6 7 6 9 14
2 3 4 4 1 2 3 2 1 2 3 2 3 7 6 5 4 2 7 5 5 2 2 6 3 6 5 7 2 4 9 5 4 3 3 5 2 4 12 13 15 14 5 7 10
2 4 3 4 5 1 1 2 7 2 5 8 6 5 2 6 7 6 4 7 7 5 4 4 2 2 9 9 3 1 5 13 5 5 5 3 5 4 6 9 11 14 18 19 14
1 2 4 3 4 8 2 2 6 3 3 3 5 4 6 5 2 2 4 3 2 9 2 4 1 2 1 7 7 1 14 13 9 6 6 6 9 6 5 4 12 11 10 16 19
6 5 3 5 6 5 3 5 3 4 4 4 4 3 5 3 2 4 4 5 3 3 4 4 2 3 4 5 4 7 6 12 12 11 3 9 5 6 10 13 13 12 4 6 19
Wind_Direction
352 347 341 336 334 329 324 321 319 318 319 320 320 317 320 319 314 286 247 222 172 176 203 259 225 218 245 213 112 109 118 233 174 21 63 124 118 97 126 132 144 137 135 139 141
1 352 344 339 335 334 331 326 322 319 318 319 320 320 327 331 322 263 248 205 209 216 220 206 210 199 243 169 137 118 193 274 289 320 2 141 118 136 138 142 132 104 117 138 136
10 8 2 354 348 341 334 330 327 323 321 321 323 328 334 337 305 247 307 197 172 185 237 231 302 271 194 174 147 97 146 237 273 274 323 280 152 143 140 135 154 141 144 146 151
14 13 11 6 1 357 351 347 342 335 330 328 332 340 333 3 201 279 1 178 180 204 252 55 314 221 243 189 145 110 138 196 292 268 266 254 166 156 158 165 154 141 147 161 155
7 9 9 7 2 356 351 349 344 338 335 328 342 358 46 342 251 233 145 178 184 197 200 187 209 220 225 223 113 114 179 205 264 274 274 256 264 150 139 147 149 146 146 158 163
358 359 1 359 359 354 346 339 332 328 335 332 329 38 75 310 300 199 169 166 186 191 192 193 218 320 253 177 209 140 175 184 196 258 250 275 142 107 149 159 155 157 159 165 161
348 349 352 352 352 352 347 338 333 327 329 335 341 41 297 235 63 189 182 202 197 194 177 215 241 291 343 102 63 127 143 145 231 348 300 316 121 133 153 157 148 155 164 147 157
341 342 343 343 345 345 346 336 332 326 325 341 91 112 249 271 277 264 206 175 184 203 226 222 228 270 230 132 57 50 91 165 222 282 272 245 152 150 153 152 148 163 140 147 163
337 338 337 338 339 337 342 330 312 313 337 35 71 122 273 312 244 222 201 187 193 216 237 258 293 210 190 124 89 23 336 314 35 22 351 35 111 176 157 157 161 172 159 163 156
339 335 333 334 333 333 336 324 300 272 222 297 261 311 261 231 212 225 219 215 189 163 334 222 183 142 43 82 193 156 195 196 150 35 18 32 9 323 167 165 167 175 192 159 161
339 333 331 330 329 328 331 334 19 26 212 208 207 237 275 329 169 197 204 180 215 95 171 244 85 222 228 183 161 124 129 105 15 85 143 224 200 340 6 5 178 174 162 152 160
337 333 329 324 322 319 317 213 217 101 311 227 238 251 272 276 144 282 211 141 143 193 184 14 222 219 163 136 110 72 86 7 78 151 143 54 220 296 320 320 331 334 187 164 141
339 333 326 326 324 329 300 258 312 310 344 297 200 197 234 128 226 244 145 141 150 214 201 180 230 187 153 141 124 124 130 206 174 116 68 104 292 270 290 271 306 292 309 187 161
343 338 337 343 8 323 268 325 337 297 49 283 269 262 157 153 297 220 197 136 211 206 219 223 251 207 187 176 137 162 158 145 160 152 119 230 236 225 260 264 235 250 256 187 170
342 341 348 344 304 275 312 335 335 126 31 304 254 180 125 148 243 268 185 109 242 265 109 254 264 219 180 176 141 180 160 145 151 69 127 277 91 276 185 223 235 229 220 205 159
342 343 351 330 296 308 333 329 347 48 358 314 257 226 61 243 256 179 173 137 182 253 248 243 239 193 212 145 125 123 117 70 37 28 298 205 188 274 174 211 223 202 208 199 173
342 344 329 269 253 311 329 4 41 92 333 276 231 266 247 277 62 151 193 135 175 14 8 330 287 37 106 81 60 118 97 81 324 250 236 144 173 261 221 199 214 222 200 194 190
345 337 307 276 281 300 341 45 50 253 251 271 340 26 357 107 273 180 119 186 269 130 307 249 329 146 203 154 164 181 157 135 196 183 245 137 214 235 214 200 220 217 191 188 191
345 313 277 266 264 291 60 46 236 333 306 342 33 41 344 351 60 16 187 102 284 164 182 282 277 342 179 142 140 228 222 168 122 313 125 203 284 294 233 223 137 185 173 185 199
341 314 264 197 211 97 71 254 262 46 350 36 92 45 355 329 17 37 12 30 339 88 218 315 279 255 299 118 227 156 164 88 17 159 225 240 267 246 140 132 145 146 174 210 184
350 16 271 256 166 61 177 244 235 327 36 7 97 284 40 274 357 325 10 308 34 339 39 72 92 300 1 84 176 275 15 75 127 159 167 166 256 221 190 187 160 179 183 176 185
4 353 110 119 61 210 234 206 66 22 21 30 57 93 345 12 353 62 10 274 348 14 8 308 129 308 260 289 292 148 151 141 125 271 181 155 276 8 66 221 183 174 166 169 172
357 257 305 178 228 251 274 249 127 44 35 36 23 40 29 31 41 15 332 299 351 72 70 328 22 5 347 351 13 43 356 3 154 84 221 130 266 26 59 37 17 354 288 173 171
29 346 320 27 151 238 265 338 153 101 94 99 9 40 51 43 8 343 354 320 337 91 137 82 23 146 185 237 213 332 333 345 84 59 305 222 240 48 57 50 34 12 4 336 223
126 250 207 293 315 125 351 35 51 83 48 23 40 67 60 26 0 7 338 341 349 3 42 84 102 114 301 269 263 181 8 12 34 246 163 284 76 6 89 86 66 56 31 38 27
77 37 337 270 309 355 3 44 105 45 87 353 98 45 59 76 302 349 2 37 308 335 13 2 184 108 258 305 314 332 52 56 18 17 32 27 68 347 331 82 49 54 59 48 40
331 329 104 294 336 23 267 159 130 110 352 48 131 80 38 323 208 252 248 75 30 40 20 47 57 42 289 302 72 48 66 83 70 33 23 47 315 331 20 39 42 49 6 64 57
Height
808 806 804 802 800 798 796 795 794 792 791 789 788 787 786 784 783 781 779 773 773 776 777 778 779 782 785 784 787 793 813 817 802 799 797 780 786 785 784 792 794 795 804 812 817
807 805 803 801 799 797 795 793 792 791 789 788 787 786 785 783 781 776 767 769 772 775 777 777 779 781 786 785 787 796 815 815 802 803 799 781 782 788 795 798 801 805 810 814 816
808 805 803 801 798 796 795 793 791 789 788 787 786 785 784 783 782 765 761 765 770 774 776 778 781 781 786 782 786 796 814 809 795 799 801 788 782 781 794 805 799 807 810 814 818
809 806 803 801 798 796 794 792 790 789 787 786 785 784 783 783 784 762 761 763 768 773 775 777 780 785 783 785 778 806 808 804 796 797 803 796 778 791 784 794 792 799 805 813 817
809 807 804 801 799 796 794 792 790 788 787 785 784 783 783 784 773 761 761 764 768 772 774 778 781 782 783 777 783 800 802 800 795 797 800 798 787 783 791 788 793 802 804 810 814
809 807 804 802 799 796 793 791 789 787 786 785 784 783 784 789 761 761 762 764 767 769 772 775 774 774 775 776 782 786 795 799 801 800 799 790 783 781 792 790 795 799 804 810 815
809 806 804 801 798 795 792 790 787 786 785 784 783 784 785 773 762 763 762 762 764 766 768 768 774 780 772 778 775 789 801 804 805 796 796 788 792 794 787 789 797 800 802 807 812
808 805 803 800 797 794 791 788 786 785 784 783 783 784 780 759 761 762 763 764 765 766 765 767 772 776 776 772 781 802 797 817 801 804 794 791 819 793 785 790 799 801 802 806 810
807 804 801 798 795 792 789 786 784 784 783 783 784 784 777 758 757 756 760 761 765 766 765 766 771 775 771 789 804 813 821 818 804 801 801 796 812 796 786 792 800 802 803 807 811
806 803 800 797 793 789 786 782 780 782 782 783 784 788 765 758 753 754 758 762 763 765 770 772 776 785 789 802 821 821 825 819 820 814 808 811 817 805 792 794 797 801 803 806 809
804 801 798 795 791 787 783 782 784 784 783 774 770 769 760 752 751 753 755 760 763 770 786 773 793 803 793 790 790 800 805 813 813 811 817 822 818 816 810 805 803 804 803 804 807
803 799 795 792 789 786 784 784 776 777 781 762 762 763 756 754 757 753 753 764 771 786 778 789 802 784 782 782 791 799 820 828 820 812 815 823 821 820 816 813 813 808 806 804 808
800 796 791 787 785 783 782 778 774 775 785 764 755 758 754 751 758 758 753 759 769 782 783 798 781 772 780 792 795 801 816 826 823 821 822 823 828 824 816 811 808 807 804 800 802
798 793 787 784 786 782 778 773 773 773 804 781 762 752 750 751 763 749 750 758 769 784 782 787 765 773 780 792 793 814 795 804 821 822 836 824 839 824 819 812 810 808 805 801 800
796 790 786 784 783 782 775 772 769 771 827 765 758 745 748 760 756 753 747 756 774 778 777 786 767 771 778 780 782 804 793 803 816 824 830 829 830 821 815 814 806 804 801 800 800
793 788 786 784 782 777 775 770 769 807 816 777 756 759 761 757 756 751 752 750 755 769 769 771 751 755 758 763 769 787 802 810 822 831 845 821 826 815 816 800 791 792 797 797 798
790 786 785 784 779 777 775 773 809 821 776 778 771 761 765 768 760 760 764 770 785 794 797 776 760 752 753 790 792 794 817 846 853 849 843 817 832 806 795 790 788 786 792 794 794
787 784 782 780 778 777 778 792 814 790 784 764 763 764 774 765 763 764 772 782 770 780 796 801 799 769 758 772 793 797 802 832 846 844 830 815 828 797 765 767 768 770 777 786 792
784 782 780 776 777 778 789 816 804 786 773 773 772 784 778 770 772 768 776 783 772 773 794 795 787 748 752 754 769 797 802 784 818 810 826 821 800 775 762 767 764 768 771 782 785
783 780 776 771 774 779 800 807 786 765 765 770 790 784 798 789 785 778 779 768 772 762 765 773 793 760 751 752 756 769 768 812 813 833 832 822 804 797 776 768 767 768 774 775 782
783 786 768 771 775 790 809 800 773 761 760 771 779 784 782 788 781 789 788 768 763 764 762 772 784 781 761 764 775 772 780 784 792 802 819 830 810 759 757 762 759 761 765 770 778
788 799 768 772 792 796 799 779 767 770 766 771 772 777 780 780 787 785 785 774 757 762 778 771 791 799 779 757 749 755 768 783 811 803 799 807 796 751 756 759 759 762 755 762 766
800 793 767 770 802 802 784 769 766 771 772 775 778 776 777 791 792 788 781 762 756 766 774 772 795 818 796 777 763 780 776 778 786 796 798 811 797 761 761 769 773 773 766 759 762
800 804 782 774 780 780 782 778 776 763 769 769 774 775 784 794 792 792 787 770 758 762 763 769 795 806 825 804 787 788 780 775 788 810 803 795 777 775 776 780 778 771 767 765 760
801 800 789 801 787 777 773 772 782 780 774 777 785 788 792 803 801 799 788 783 769 766 768 778 801 791 787 781 774 776 782 779 786 783 796 778 789 788 784 780 782 780 778 774 774
801 800 792 794 788 784 782 778 783 780 779 785 791 785 791 799 796 798 792 790 788 779 776 783 797 796 796 781 776 774 781 784 781 782 783 788 797 790 783 782 779 777 783 785 786
798 794 795 794 790 791 788 776 779 775 776 775 779 784 791 786 779 779 780 792 792 791 796 799 803 808 812 788 784 807 792 793 796 793 794 805 804 797 795 788 785 781 787 787 782